Location: Stigler
(35.2540°N, 95.1230°W)
Time: 22:33:47
(UTC-06:00)

Milstar 3 Cent rocket - Pass Details

Date: 26 September 2017
Orbit: 713 x 5141 km, 28.3° (Epoch: 19 June)

Event Time Altitude Azimuth Distance (km) Brightness Sun altitude
Rises 21:12:15 0° 254° (WSW) 3,614 6.3 -25.3°
Reaches altitude 10° 21:15:14 10° 246° (WSW) 2,398 5.1 -25.9°
Enters shadow 21:19:07 35° 202° (SSW) 1,148 2.9 -26.6°
